Regional Weather Roundup
Issued by NWS

Home | Current Version | Previous Version | Graphics & Text | Print | Product List | Glossary On
Versions: 1 2 3 4 5 6 7 8 9 10 11 12 13 14 15 16 17 18 19 20 21 22 23 24 25 26 27 28 29 30 31 32 33 34 35 36 37 38 39 40 41 42 43 44 45 46 47 48 49 50
000
ASUS43 KLSX 152007
RWRMO

WEATHER SUMMARY FOR MISSOURI
NATIONAL WEATHER SERVICE SPRINGFIELD MO
300 PM CDT MON SEP 15 2014

NOTE: "FAIR" INDICATES FEW OR NO CLOUDS BELOW 12,000 FEET WITH NO
       SIGNIFICANT WEATHER AND/OR OBSTRUCTIONS TO VISIBILITY.
       CURRENT SKY AND/OR WEATHER CONDITIONS ARE NOT AVAILABLE FOR
       CHILLICOTHE AND FARMINGTON.

MOZ001>031-035>038-043-044-053-054-152100-
...NORTHERN AND WESTERN MISSOURI...

CITY           SKY/WX    TMP DP  RH WIND       PRES   REMARKS
KANSAS CTY INT CLOUDY    65  61  87 N12G21    30.14S
KANSAS C DTWN  CLOUDY    69  61  75 N8        30.13S
LEE`S SUMMIT   CLOUDY    67  63  87 N13       30.14R
ST JOSEPH      PTSUNNY   70  60  70 N16       30.16R
CHILLICOTHE      N/A     69  62  78 VRB5      30.13S
KIRKSVILLE     CLOUDY    64  59  83 N10       30.11R

$$
MOZ066>068-077>081-088>096-101>105-152100-
...SOUTHWEST MISSOURI...

CITY           SKY/WX    TMP DP  RH WIND       PRES   REMARKS
SPRINGFIELD    MOSUNNY   84  65  52 SW14      30.09F
JOPLIN         PTSUNNY   82  67  60 SW12G21   30.11S

$$
MOZ032>034-039>042-045>050-055>058-069>072-152100-
...CENTRAL MISSOURI...

CITY           SKY/WX    TMP DP  RH WIND       PRES   REMARKS
COLUMBIA       CLOUDY    70  66  87 NW15      30.07S
JEFFERSON CITY CLOUDY    75  67  76 NW12      30.05S
ROLLA          CLOUDY    77  65  66 W15G21    30.05S
SEDALIA        CLOUDY    69  66  90 NW9       30.10R FOG
WHITEMAN AFB   CLOUDY    69  66  93 NW10      30.10R
OSAGE BEACH    CLOUDY    79  66  65 W8        30.06F

$$
MOZ051-052-059>065-152100-
...EAST CENTRAL MISSOURI...

CITY           SKY/WX    TMP DP  RH WIND       PRES   REMARKS
ST LOUIS INTL  CLOUDY    76  65  68 W13       30.04F
SPIRIT OF STL  CLOUDY    72  66  81 NW7       30.04S FOG
ST CHARLES     CLOUDY    73  64  73 W9        30.03F

$$
MOZ072>076-082>087-097>100-106>115-152100-
...SOUTH CENTRAL AND SOUTHEAST MISSOURI...

CITY           SKY/WX    TMP DP  RH WIND       PRES   REMARKS
CAPE GIRARDEAU CLOUDY    76  63  64 S8        30.08F
FARMINGTON     PTSUNNY   81  64  57 SW13G20   30.07S
POPLAR BLUFF   CLOUDY    75  61  61 SW8       30.09F
WEST PLAINS    PTSUNNY   77  65  66 SW12      30.12F

$$



USA.gov is the U.S. government's official web portal to all federal, state and local government web resources and services.